Weather Roundup
Issued by NWS Chicago, IL

Home | Current Version | Previous Version | Text Only | Print | Product List | Glossary On
Versions: 1 2 3 4 5 6 7 8 9 10 11 12 13 14 15 16 17 18 19 20 21 22 23 24 25 26 27 28 29 30 31 32 33 34 35 36 37 38 39 40 41 42 43 44 45 46 47 48 49 50
000
NZUS59 KLOT 070410
HRRLOT

CHICAGO AREA WEATHER ROUNDUP
NATIONAL WEATHER SERVICE CHICAGO/ROMEOVILLE IL
1000 PM CST FRI MAR 06 2015

NOTE: "FAIR" INDICATES FEW OR NO CLOUDS BELOW 12,000 FEET WITH NO
SIGNIFICANT WEATHER AND/OR OBSTRUCTIONS TO VISIBILITY.

* THESE STATIONS ARE NOT UNDER NWS QUALITY CONTROL. THEY ALSO MAY NOT
  REPORT WEATHER SUCH AS PRECIPITATION OR FOG.

ILZ005-006-012>014-019>023-070500-
NORTHEAST ILLINOIS

CITY           SKY/WX    TMP DP  RH WIND       PRES   REMARKS
OHARE          PTCLDY    25  17  72 SW12      30.15S WCI  14
MIDWAY         PTCLDY    25  16  68 SW15      30.18S WCI  13
AURORA         PTCLDY    22  15  75 S7        30.16F WCI  13
LANSING*       PTCLDY    21  14  74 SW14      30.20S WCI   8
JOLIET*        CLEAR     23  17  75 S10       30.18F WCI  13
WAUKEGAN       PTCLDY    23  18  81 SW13      30.13S WCI  11
DUPAGE AIRPORT CLEAR     21  15  78 S12       30.15F WCI   9
WHEELING       PTCLDY    26  17  68 SW9       30.17S WCI  17
KANKAKEE*      CLEAR     21  15  78 S17       30.21F WCI   6
MORRIS*        PTCLDY    20  17  87 S7        30.17F WCI  11
LEWIS AIRPORT* PTCLDY    21  15  80 S9        30.18F WCI  10
NORTHERLY IS     N/A     26  16  65 SW6         N/A  WCI  20
$$

WIZ051-052-058>065-066-070>072-070500-
SOUTHEAST WISCONSIN

CITY           SKY/WX    TMP DP  RH WIND       PRES   REMARKS
MILWAUKEE      MOCLDY    23  16  74 SW6       30.11F WCI  16
KENOSHA*       MOCLDY    24  17  74 SW9       30.12S WCI  14
RACINE*        MOCLDY    24  16  71 SW8       30.13F WCI  15
BURLINGTON     MOCLDY    19  15  84 S7        30.11F WCI  10
WAUKESHA       MOCLDY    25  19  80 S5        30.10F WCI  19
WEST BEND      MOCLDY    25  18  74 SW7       30.08S WCI  17
$$

INZ001>003-010>013-019-020-070500-
NORTHWEST INDIANA

CITY           SKY/WX    TMP DP  RH WIND       PRES   REMARKS
GARY*          PTCLDY    25  11  56 S10G18    30.19S WCI  15
MICHIGAN CITY* NOT AVBL
RENSSELAER*    NOT AVBL
VALPARAISO     CLEAR     20  12  71 SW14      30.20F WCI   7
$$

LMZ740>746-070500-
SOUTHERN LAKE MICHIGAN

STATION/POSITION TIME  SKY/WX   TEMP WIND        PRES    VSBY
                                AIR  DIR/SP/G
                 (UTC)          (F)  (DEG/KT/KT) (MB)    (MI)
HARRISON CRIB    0400            26  210/ 29/ 35   N/A
BURNHAM HARBOR   0400            25  220/  8/ 12   N/A
CALUMET HARBOR   0400            25  200/ 10/ 16 1020.7R
BURNS HARBOR     NOT AVBL
MICHIGAN CITY    0400            24  170/ 16/ 21   N/A
$$

ABBREVIATIONS USED IN REMARKS
   TC - TEMPERATURE IN CELSIUS
  WCI - WIND CHILL INDEX
   HX - HEAT INDEX
  VSB - VISIBILITY
$$


USA.gov is the U.S. government's official web portal to all federal, state and local government web resources and services.